Regional Weather Roundup
Issued by NWS

Home | Current Version | Previous Version | Text Only | Print | Product List | Glossary Off
Versions: 1 2 3 4 5 6 7 8 9 10 11 12 13 14 15 16 17 18 19 20 21 22 23 24 25 26 27

000
ASUS45 KCYS 241810
RWRWY

WYOMING REGIONAL WEATHER ROUNDUP
NATIONAL WEATHER SERVICE CHEYENNE WY
1200 PM MDT THU APR 24 2014

NOTE:  "FAIR" INDICATES FEW OR NO CLOUDS BELOW 12,000 FEET
WITH NO SIGNIFICANT WEATHER AND/OR OBSTRUCTIONS TO VISIBILITY.

WYZ001-241900-
YELLOWSTONE NATIONAL PARK

CITY           SKY/WX    TMP DP  RH WIND       PRES   REMARKS
LK YELLOWSTONE NOT AVBL
W YELLOWSTONE  NOT AVBL

$$
WYZ002>013-054>058-071-098>099-241900-
NORTHERN WYOMING

CITY           SKY/WX    TMP DP  RH WIND       PRES   REMARKS
JACKSON        PTSUNNY   43  27  52 S24G30    29.98
CODY           SUNNY     55  25  30 W14       29.84F
GREYBULL       SUNNY     56  14  19 SE12G17   29.85F
6HR MIN TEMP:  31; 6HR MAX TEMP:  57;

WORLAND        SUNNY     57  17  21 VRB5      29.85F
6HR MIN TEMP:  31; 6HR MAX TEMP:  58;

SHERIDAN         N/A     43  18  36 SW24G32     N/A
6HR MIN TEMP:  31; 6HR MAX TEMP:  56;

BUFFALO        SUNNY     52  17  25 E3        29.85F
6HR MIN TEMP:  33; 6HR MAX TEMP:  53;

GILLETTE       SUNNY     56  24  29 VRB6      29.85F
6HR MIN TEMP:  37; 6HR MAX TEMP:  56;

HULETT         FAIR      50  27  40 W8        29.88
NEWCASTLE      FAIR      55  18  22 W9G18     29.87

$$
WYZ014>020-022>026-101>103-241900-
CENTRAL WYOMING

CITY           SKY/WX    TMP DP  RH WIND       PRES   REMARKS
BIG PINEY      PTSUNNY   46  18  32 VRB3      30.01F
6HR MIN TEMP:  17; 6HR MAX TEMP:  46;

PINEDALE       MOCLDY    41  19  42 N3        30.03F
DUBOIS         FAIR      43  19  39 W20G28    29.92F
LANDER         MOSUNNY   53  22  29 NE8       29.89F
6HR MIN TEMP:  27; 6HR MAX TEMP:  53;

RIVERTON       MOSUNNY   50  13  22 VRB7      29.92F
6HR MIN TEMP:  28; 6HR MAX TEMP:  51;

CASPER         PTSUNNY   53  15  22 SW22G30   29.92F
6HR MIN TEMP:  30; 6HR MAX TEMP:  54;

DOUGLAS        SUNNY     58  18  21 W20       29.91F
6HR MIN TEMP:  25; 6HR MAX TEMP:  58;


$$
WYZ021-027>030-104>119-241900-
SOUTHERN WYOMING

CITY           SKY/WX    TMP DP  RH WIND       PRES   REMARKS
EVANSTON       CLOUDY    50  20  30 SW17G26   30.05F
6HR MIN TEMP:  25; 6HR MAX TEMP:  50;

KEMMERER       PTCLDY    46  19  34 W13G23    30.04F
FORT BRIDGER   FAIR      50  20  31 W13G22    30.08F
ROCK SPRINGS   NOT AVBL
DIXON          FAIR      44  16  33 S14       30.12F
RAWLINS        CLOUDY    49  16  26 SW26G35   30.02F
6HR MIN TEMP:  27; 6HR MAX TEMP:  49;

SARATOGA       FAIR      45  16  31 W24       30.06F
LARAMIE        PTSUNNY   46  13  26 W16       29.98F
6HR MIN TEMP:  21; 6HR MAX TEMP:  46;

CHEYENNE       MOSUNNY   52  13  21 NW15G25   29.96F
6HR MIN TEMP:  27; 6HR MAX TEMP:  52;

TORRINGTON     SUNNY     58  18  21 W14G21    29.91F
6HR MIN TEMP:  30; 6HR MAX TEMP:  59;

PINE BLUFFS    FAIR      55  16  21 W23G32    29.96F

$$



USA.gov is the U.S. government's official web portal to all federal, state and local government web resources and services.